EW9290 Weather Reports


time (UTC)temp
C
wind
direction
speed
KPH
gust
KPH
rain 1hr
cm
rain 24hr
cm
rain mn
cm
humidity
%
barometer
mb
20260506121739 6 355 1.6 3.2 0.00 0.76 0.76 99 1007.0
20260506121236 6 347 4.8 4.8 0.00 0.76 0.76 99 1007.1
20260506120733 6 346 0.0 1.6 0.00 0.76 0.76 99 1007.2
20260506120231 6 336 1.6 1.6 0.00 0.76 0.76 99 1007.2
20260506115729 6 341 0.0 0.0 0.00 0.76 0.76 99 1007.0
20260506115227 6 341 0.0 0.0 0.00 0.76 0.76 99 1006.8
20260506114724 6 359 0.0 0.0 0.00 0.76 0.76 99 1007.2
20260506114221 6 359 0.0 0.0 0.00 0.76 0.76 99 1006.8
20260506113720 6 0 0.0 1.6 0.00 0.76 0.76 99 1007.0
20260506113217 6 0 0.0 0.0 0.00 0.76 0.76 99 1006.6
20260506112713 6 359 0.0 0.0 0.00 0.76 0.76 99 1006.8
20260506112211 6 335 0.0 0.0 0.00 0.76 0.76 99 1006.5
20260506111708 6 334 0.0 0.0 0.00 0.76 0.76 99 1006.4
20260506111206 6 334 0.0 0.0 0.00 0.76 0.76 99 1006.2
20260506110703 6 299 0.0 0.0 0.00 0.76 0.76 99 1006.1
20260506110201 6 315 0.0 0.0 0.00 0.76 0.76 99 1006.2
20260506105657 6 337 0.0 0.0 0.00 0.76 0.76 99 1006.3
20260506105154 6 327 1.6 3.2 0.00 0.76 0.76 99 1006.0
20260506104652 6 15 1.6 1.6 0.00 0.76 0.76 99 1005.6
20260506104149 6 356 6.4 8.0 0.00 0.76 0.76 99 1006.0
20260506103646 6 5 4.8 4.8 0.00 0.76 0.76 99 1005.9
20260506103143 6 338 3.2 3.2 0.00 0.76 0.76 99 1005.9
20260506102642 6 331 4.8 4.8 0.00 0.76 0.76 99 1005.9
20260506102138 6 4 4.8 4.8 0.00 0.76 0.76 99 1006.0
20260506101635 6 323 3.2 4.8 0.00 0.76 0.76 99 1005.6
20260506101132 6 358 1.6 1.6 0.00 0.76 0.76 99 1005.5
20260506100631 6 353 3.2 3.2 0.00 0.76 0.76 99 1005.1
20260506100128 6 21 4.8 4.8 0.00 0.76 0.76 99 1005.0
20260506095627 6 19 1.6 3.2 0.00 0.76 0.76 99 1004.8
20260506095123 6 34 1.6 3.2 0.00 0.76 0.76 99 1004.9
20260506094620 6 31 0.0 0.0 0.00 0.76 0.76 99 1005.2
20260506094118 6 21 1.6 1.6 0.00 0.76 0.76 99 1005.6
20260506093616 6 28 0.0 1.6 0.00 0.76 0.76 99 1005.5
20260506093113 6 16 3.2 3.2 0.00 0.76 0.76 99 1005.7
20260506092611 6 340 8.0 9.7 0.18 0.76 0.76 99 1006.0
20260506092108 6 9 3.2 3.2 0.18 0.76 0.76 99 1006.1
20260506091606 6 328 1.6 1.6 0.00 0.74 0.74 99 1006.1
20260506091103 6 305 3.2 4.8 0.18 0.74 0.74 99 1006.0
20260506090601 6 340 8.0 9.7 0.13 0.71 0.71 99 1005.9
20260506090057 6 327 3.2 3.2 0.13 0.71 0.71 99 1005.7
20260506085554 6 345 4.8 8.0 0.00 0.69 0.69 99 1005.7
20260506085050 6 335 1.6 1.6 0.00 0.69 0.69 99 1005.5
20260506084547 6 344 8.0 9.7 0.00 0.69 0.69 99 1005.8
20260506084043 6 350 8.0 9.7 0.00 0.69 0.69 99 1005.3
20260506083541 6 354 1.6 1.6 0.00 0.69 0.69 99 1005.3
20260506083038 6 356 1.6 1.6 0.00 0.69 0.69 99 1005.7
20260506082535 6 7 1.6 1.6 0.18 0.69 0.69 99 1005.5
20260506082030 6 3 4.8 4.8 0.18 0.69 0.69 99 1005.4
20260506081529 6 10 4.8 4.8 0.13 0.66 0.66 99 1005.7
20260506081026 6 13 1.6 1.6 0.13 0.66 0.66 99 1005.8
20260506080523 6 29 4.8 4.8 0.18 0.64 0.64 99 1005.9
20260506073507 6 7 1.6 3.2 0.18 0.58 0.58 99 1005.7
20260506073004 6 8 4.8 8.0 0.00 0.56 0.56 99 1005.7
20260506072501 6 5 0.0 1.6 0.13 0.56 0.56 99 1005.6
20260506071959 6 335 4.8 4.8 0.13 0.56 0.56 99 1005.7
20260506071456 6 0 0.0 0.0 0.18 0.53 0.53 99 1005.5
20260506070953 6 357 3.2 3.2 0.18 0.53 0.53 99 1005.4
20260506070450 6 347 4.8 4.8 0.00 0.51 0.51 99 1005.2
20260506062428 6 7 8.0 11.3 0.00 0.41 0.41 99 1005.4
20260506061923 6 352 1.6 1.6 0.18 0.41 0.41 99 1005.6
20260506061420 6 0 4.8 4.8 0.18 0.41 0.41 99 1005.6
20260506060918 6 352 0.0 0.0 0.13 0.38 0.38 99 1005.6
20260506060416 6 10 3.2 3.2 0.13 0.38 0.38 99 1005.7
20260506051348 6 16 4.8 4.8 0.36 0.15 0.15 99 1005.9
20260506050845 6 29 3.2 3.2 0.30 0.13 0.13 99 1006.0
20260506050343 7 26 6.4 8.0 0.13 0.10 0.10 99 1006.0
20260506044833 7 348 1.6 1.6 0.18 0.08 0.08 99 1005.9
20260506044331 7 6 4.8 4.8 0.00 0.05 0.05 99 1005.8
20260506043828 7 23 3.2 3.2 0.00 0.05 0.05 99 1006.0
20260506043325 7 21 8.0 11.3 0.13 0.05 0.05 99 1006.1
20260506042823 7 1 8.0 9.7 0.13 0.05 0.05 99 1006.1
20260506042322 7 15 6.4 8.0 0.00 0.03 0.03 99 1006.0
20260506041821 7 14 4.8 4.8 0.00 0.03 0.03 99 1006.3
20260506041317 7 14 11.3 14.5 0.18 0.03 0.03 99 1006.1
20260506040814 7 29 9.7 12.9 0.18 0.03 0.03 99 1006.3
20260506040312 7 356 11.3 12.9 0.13 0.00 0.00 99 1006.2
20260506035808 8 12 9.7 11.3 0.30 2.57 2.57 99 1006.3
20260506035306 8 13 9.7 11.3 0.18 2.54 2.54 99 1006.3
20260506034803 8 7 8.0 9.7 0.13 2.51 2.51 99 1006.6
20260506034259 8 347 4.8 8.0 0.30 2.51 2.51 99 1006.6
20260506033756 8 12 8.0 9.7 0.18 2.49 2.49 99 1006.6
20260506033253 8 356 6.4 8.0 0.13 2.46 2.46 99 1006.5
20260506032750 8 25 6.4 9.7 0.13 2.46 2.46 99 1006.4
20260506032247 8 17 0.0 0.0 0.18 2.44 2.44 99 1006.9
20260506031744 8 3 4.8 4.8 0.30 2.44 2.44 99 1006.8
20260506031241 8 18 3.2 3.2 0.13 2.41 2.41 99 1006.5
20260506030739 8 14 3.2 3.2 0.18 2.39 2.39 99 1006.4
20260506030237 8 7 3.2 3.2 0.36 2.39 2.39 99 1006.8
20260506025733 8 5 0.0 0.0 0.30 2.36 2.36 99 1007.0
20260506025230 8 5 0.0 0.0 0.43 2.34 2.34 99 1007.0
20260506024727 8 5 0.0 0.0 0.48 2.31 2.31 99 1006.6
20260506024223 8 5 0.0 0.0 0.30 2.29 2.29 99 1006.5
20260506023719 8 3 0.0 0.0 0.30 2.24 2.24 99 1006.6
20260506023217 8 308 1.6 1.6 0.30 2.21 2.21 99 1007.0
20260506022713 8 298 3.2 3.2 0.30 2.18 2.18 99 1006.9
20260506022211 8 350 3.2 3.2 0.48 2.16 2.16 99 1006.5
20260506021709 8 15 0.0 0.0 0.43 2.13 2.13 99 1006.4
20260506021206 8 18 1.6 1.6 0.30 2.08 2.08 99 1006.3
20260506020703 8 11 1.6 1.6 0.36 2.06 2.06 99 1006.4
20260506020201 8 12 1.6 1.6 0.30 2.03 2.03 99 1006.1
20260506015658 8 344 1.6 1.6 0.30 2.01 2.01 99 1006.1
20260506015155 8 17 1.6 1.6 0.30 1.98 1.98 99 1005.9
20260506014652 8 24 0.0 1.6 0.30 1.96 1.96 99 1005.9
20260506014148 8 18 4.8 4.8 0.30 1.93 1.93 99 1005.7
20260506013646 8 20 4.8 8.0 0.43 1.91 1.91 99 1006.0
20260506013143 8 19 3.2 3.2 0.48 1.88 1.88 99 1006.2
20260506012639 8 22 1.6 1.6 0.30 1.83 1.83 99 1006.3
20260506012136 8 357 4.8 4.8 0.43 1.80 1.80 99 1006.1
20260506011633 8 354 3.2 3.2 0.48 1.78 1.78 99 1006.1
20260506011129 8 6 6.4 8.0 0.36 1.73 1.73 99 1006.0
20260506010628 8 15 4.8 4.8 0.18 1.70 1.70 99 1006.0
20260506010125 8 3 4.8 4.8 0.43 1.68 1.68 99 1006.0
20260506005622 8 3 4.8 4.8 0.43 1.68 1.68 99 1005.8
20260506005118 8 332 3.2 3.2 0.18 1.60 1.60 99 1005.7
20260506004615 8 20 3.2 3.2 0.30 1.60 1.60 99 1005.6
20260506004112 8 335 1.6 3.2 0.30 1.57 1.57 99 1005.4
20260506003609 8 329 4.8 4.8 0.48 1.55 1.55 99 1005.9
20260506003105 8 49 0.0 0.0 0.61 1.52 1.52 99 1005.5
20260506002601 8 48 1.6 1.6 0.48 1.47 1.47 99 1005.2
20260506002057 8 26 1.6 3.2 0.30 1.42 1.42 99 1005.5
20260506001553 8 26 0.0 1.6 0.30 1.40 1.40 99 1005.6
20260506001050 8 29 0.0 0.0 0.30 1.37 1.37 99 1005.4
20260506000547 8 17 1.6 3.2 0.13 1.35 1.35 99 1005.6
20260506000045 8 13 3.2 3.2 0.00 1.32 1.32 99 1005.6
20260505235543 8 19 1.6 1.6 0.00 1.32 1.32 99 1005.6
20260505235039 8 18 1.6 1.6 0.00 1.32 1.32 99 1005.5
20260505234537 8 28 3.2 3.2 0.00 1.32 1.32 99 1005.4
20260505234033 9 25 4.8 4.8 0.00 1.32 1.32 99 1005.5
20260505233531 9 2 11.3 12.9 0.00 1.32 1.32 99 1005.4
20260505233028 9 29 0.0 0.0 0.18 1.32 1.32 99 1005.6
20260505232526 9 25 8.0 8.0 0.30 1.32 1.32 99 1005.7
20260505232023 10 14 8.0 11.3 0.30 1.30 1.30 99 1005.6
20260505231520 10 5 4.8 4.8 0.30 1.27 1.27 99 1005.8
20260505231019 10 351 11.3 14.5 0.30 1.24 1.24 99 1005.5
20260505230515 10 1 4.8 8.0 0.48 1.22 1.22 99 1005.7
20260505230012 10 339 6.4 9.7 0.43 1.19 1.19 99 1005.9
20260505225509 10 338 4.8 9.7 0.48 1.14 1.14 99 1005.7
20260505225005 10 301 3.2 3.2 1.07 1.12 1.12 99 1005.9
20260505224502 11 347 4.8 8.0 1.50 1.04 1.04 99 1005.9
20260505223959 11 18 11.3 12.9 1.27 0.94 0.94 99 1005.7
20260505223456 11 26 8.0 9.7 0.48 0.79 0.79 99 1005.4
20260505222952 11 26 8.0 11.3 0.13 0.74 0.74 99 1005.2
20260505222449 11 11 12.9 12.9 0.18 0.71 0.71 99 1005.2
20260505221944 12 20 9.7 12.9 0.18 0.71 0.71 99 1005.1
20260505221442 13 18 0.0 1.6 0.30 0.69 0.69 99 1004.8
20260505220939 13 336 1.6 1.6 0.30 0.69 0.69 99 1005.2
20260505220436 13 344 0.0 0.0 0.00 0.64 0.64 99 1005.2
20260505215934 13 322 0.0 1.6 0.00 0.64 0.64 99 1005.2
20260505215432 13 278 0.0 0.0 0.00 0.64 0.64 99 1005.2
20260505214929 13 276 0.0 0.0 0.00 0.64 0.64 99 1005.2
20260505214427 13 265 0.0 0.0 0.00 0.64 0.64 99 1005.2
20260505213924 13 301 0.0 0.0 0.13 0.64 0.64 99 1005.1
20260505213421 13 286 0.0 0.0 0.13 0.64 0.64 99 1005.2
20260505212917 13 300 0.0 0.0 0.00 0.61 0.61 99 1004.9
20260505212414 13 301 0.0 0.0 0.00 0.61 0.61 99 1005.1
20260505211911 13 290 0.0 0.0 0.18 0.61 0.61 99 1005.1
20260505211409 13 289 0.0 0.0 0.18 0.61 0.61 99 1005.2
20260505210904 13 288 0.0 0.0 0.00 0.58 0.58 99 1005.0
20260505210402 13 283 0.0 0.0 0.30 0.58 0.58 99 1005.3
20260505205859 13 295 1.6 1.6 1.19 0.58 0.58 98 1005.4
20260505205357 13 262 3.2 3.2 1.19 0.53 0.53 98 1005.4
20260505204853 13 280 4.8 4.8 0.89 0.38 0.38 97 1005.6
20260505204351 13 325 0.0 0.0 1.27 0.33 0.33 97 1005.2
20260505203848 13 309 0.0 0.0 0.79 0.23 0.23 96 1005.3
20260505203344 13 315 0.0 0.0 0.13 0.13 0.13 95 1005.2
20260505202841 13 336 1.6 1.6 0.18 0.10 0.10 95 1005.1
20260505202337 14 333 0.0 0.0 0.30 0.10 0.10 95 1005.0
20260505201834 14 333 0.0 0.0 0.13 0.08 0.08 94 1005.0
20260505201332 13 318 0.0 0.0 0.00 0.05 0.05 94 1005.1
20260505200830 13 316 1.6 3.2 0.00 0.05 0.05 94 1005.3
20260505200326 13 303 1.6 3.2 0.00 0.05 0.05 94 1005.4
20260505195822 13 301 1.6 3.2 0.00 0.05 0.05 94 1005.2
20260505195319 14 297 3.2 4.8 0.00 0.05 0.05 94 1005.3
20260505194816 14 322 4.8 4.8 0.00 0.05 0.05 93 1005.2
20260505194314 14 309 3.2 3.2 0.00 0.05 0.05 93 1005.3
20260505193808 14 301 4.8 4.8 0.00 0.05 0.05 92 1005.3
20260505193307 15 292 4.8 8.0 0.18 0.05 0.05 90 1005.3
20260505192805 15 293 4.8 8.0 0.00 0.03 0.03 86 1005.3
20260505192305 16 274 4.8 4.8 0.00 0.03 0.03 82 1005.3
20260505191800 16 266 1.6 1.6 0.00 0.03 0.03 80 1005.1
20260505191258 16 300 3.2 3.2 0.00 0.03 0.03 79 1005.2
20260505190754 16 263 1.6 3.2 0.00 0.03 0.03 79 1005.2
20260505190249 16 285 4.8 4.8 0.00 0.03 0.03 78 1005.1
20260505185746 17 256 1.6 3.2 0.00 0.03 0.03 77 1005.1
20260505185243 17 263 1.6 3.2 0.00 0.03 0.03 76 1005.2
20260505184738 17 266 3.2 3.2 0.00 0.03 0.03 75 1005.3
20260505184236 17 298 6.4 8.0 0.00 0.03 0.03 75 1005.3
20260505183733 17 207 9.7 11.3 0.00 0.03 0.03 75 1005.5
20260505183230 17 228 6.4 9.7 0.00 0.03 0.03 75 1005.4
20260505182726 17 252 3.2 3.2 0.00 0.03 0.03 75 1005.3
20260505182223 17 245 3.2 3.2 0.00 0.03 0.03 74 1005.5
20260505181720 17 245 1.6 1.6 0.00 0.03 0.03 74 1005.4
20260505181217 17 260 3.2 3.2 0.00 0.03 0.03 75 1005.3
20260505180714 17 270 6.4 9.7 0.00 0.03 0.03 73 1005.4
20260505180210 17 257 4.8 8.0 0.00 0.03 0.03 75 1005.3
20260505175706 17 300 4.8 4.8 0.00 0.03 0.03 75 1005.3
20260505175203 17 288 3.2 3.2 0.00 0.03 0.03 75 1005.3
20260505174700 17 281 6.4 8.0 0.00 0.03 0.03 74 1005.2
20260505174156 17 308 4.8 4.8 0.00 0.03 0.03 74 1005.1
20260505173653 17 296 11.3 12.9 0.00 0.03 0.03 73 1005.2
20260505173150 17 274 8.0 8.0 0.00 0.03 0.03 71 1005.2
20260505172647 17 304 9.7 11.3 0.00 0.03 0.03 71 1005.4
20260505172144 17 257 11.3 16.1 0.00 0.03 0.03 70 1005.2
20260505171643 17 278 6.4 8.0 0.00 0.03 0.03 70 1005.1
20260505171141 18 229 4.8 8.0 0.00 0.03 0.03 70 1005.3
20260505170638 18 243 4.8 8.0 0.00 0.03 0.03 70 1005.2
20260505170135 18 260 1.6 1.6 0.00 0.03 0.03 70 1005.2
20260505165635 18 294 11.3 12.9 0.00 0.03 0.03 68 1005.2
20260505165131 18 218 4.8 4.8 0.00 0.03 0.03 69 1005.0
20260505164627 18 252 4.8 4.8 0.00 0.03 0.03 69 1005.3
20260505164125 18 278 4.8 4.8 0.00 0.03 0.03 69 1005.1
20260505163623 18 281 6.4 8.0 0.00 0.03 0.03 68 1005.0
20260505163120 18 275 4.8 8.0 0.00 0.03 0.03 68 1005.2
20260505162617 18 290 8.0 9.7 0.00 0.03 0.03 68 1005.0
20260505162115 18 282 11.3 12.9 0.00 0.03 0.03 67 1005.3
20260505161612 18 244 11.3 14.5 0.00 0.03 0.03 66 1005.2
20260505161109 18 298 8.0 9.7 0.00 0.03 0.03 66 1004.9
20260505160607 18 217 14.5 17.7 0.00 0.03 0.03 65 1005.2
20260505160104 19 221 12.9 22.5 0.00 0.03 0.03 65 1005.1
20260505153043 20 296 8.0 12.9 0.00 0.03 0.03 63 1004.5
20260505152540 20 213 3.2 3.2 0.00 0.03 0.03 64 1004.1
20260505152036 19 272 4.8 4.8 0.00 0.03 0.03 64 1004.1
20260505151531 19 220 4.8 8.0 0.00 0.03 0.03 65 1004.0
20260505151029 19 217 8.0 11.3 0.00 0.03 0.03 65 1003.9
20260505150525 18 250 6.4 11.3 0.00 0.03 0.03 65 1004.2
20260505140450 17 225 14.5 16.1 0.00 0.03 0.03 72 1003.9
20260505124903 15 218 11.3 14.5 0.00 0.03 0.03 79 1004.1
20260505124401 15 216 8.0 11.3 0.00 0.03 0.03 79 1004.1
20260505123856 15 254 4.8 8.0 0.00 0.03 0.03 80 1004.2
20260505123353 15 229 3.2 3.2 0.00 0.03 0.03 79 1004.1
20260505122849 15 219 8.0 11.3 0.00 0.03 0.03 79 1003.9
20260505122347 15 209 9.7 11.3 0.00 0.03 0.03 79 1003.9
20260505121843 15 219 3.2 3.2 0.00 0.03 0.03 79 1003.9